Skip Page Navigation
NASA JPL Caltech
NASA Logo - Jet Propulsion Laboratory + View the NASA Portal
+ Center for Near-Earth Object Studies
JPL Home Earth Solar System Stars & Galaxies Technology
JPL Solar System Dynamics
BODIES ORBITS EPHEMERIDES TOOLS PHYSICAL DATA DISCOVERY FAQ SITE MAP
JPL Small-Body Database Browser
Search: [ help ]  
10606 Crocco (1996 VD1)
Classification: Main-belt Asteroid          SPK-ID: 2010606
Ephemeris | Orbit Diagram | Orbital Elements | Mission Design | Physical Parameters | Discovery Circumstances | Close-Approach Data ]

[ show orbit diagram ]
Orbital Elements at Epoch 2459000.5 (2020-May-31.0) TDB
Reference: JPL 24 (heliocentric ecliptic J2000)
 Element Value Uncertainty (1-sigma)   Units 
e .1005147002586236 3.7768e-08  
a 3.146916491252562 2.2514e-08 au
q 2.830605123395391 1.1656e-07 au
i 17.64931136313399 6.1189e-06 deg
node 40.98722214222314 1.4005e-05 deg
peri 263.0603417694802 3.4941e-05 deg
M 170.9509418379703 3.3099e-05 deg
tp 2458032.232730799740
(2017-Oct-05.73273080)
0.00018686 TDB
period 2039.042389380218
5.58
2.1882e-05
5.991e-08
d
yr
n .1765534654281634 1.8947e-09 deg/d
Q 3.463227859109733 2.4777e-08 au
  Orbit Determination Parameters
   # obs. used (total)      1286  
   data-arc span      12977 days (35.53 yr)  
   first obs. used      1984-08-21  
   last obs. used      2020-03-02  
   planetary ephem.      DE431  
   SB-pert. ephem.      SB431-N16  
   condition code      0  
   norm. resid. RMS      .49931  
   source      ORB  
   producer      Otto Matic  
   solution date      2020-Nov-13 03:05:14  

Additional Information
 Earth MOID = 1.8853 au 
 Jupiter MOID = 1.81511 au 
 T_jup = 3.128 
[ show covariance matrix ]

Ephemeris | Orbit Diagram | Orbital Elements | Mission Design | Physical Parameters | Discovery Circumstances | Close-Approach Data ]

Physical Parameter Table
Parameter Symbol Value Units Sigma Reference Notes
absolute magnitude H 13.4   n/a MPO458932  
diameter diameter 10.071 km 0.381 urn:nasa:pds:neowise_diameters_albedos::2.0[mainbelt] (http://adsabs.harvard.edu/abs/2011ApJ...741...68M)  
geometric albedo albedo 0.091   0.012 urn:nasa:pds:neowise_diameters_albedos::2.0[mainbelt] (http://adsabs.harvard.edu/abs/2011ApJ...741...68M)  

10606 Crocco           Discovered 1996 Nov. 3 by V. Giuliani and F. Manca at Sormano.
Gaetano Arturo Crocco (1877-1968), Italian pioneer in aeronautics and space science, designed revolutionary airships and patented a cyclic pitch design for helicopter rotors. A professor of aeronautics in Rome, he founded the Italian Rocket Society.
NOTE: some special characters may not display properly (any characters within {} are an attempt to place the proper accent above a character)
Reference: 20020328/MPCPages.arcLast Updated: 2003-10-02

[ hide close-approach data ]
Close-Approach Data   ...sorted by Date/Time (TDB)
Date/Time (TDB) Time Uncertainty
(days_HH:MM)
Body Nominal Distance (au) Minimum Distance (au) Maximum Distance (au) V-relative (km/s) V-infinity (km/s) JD (TDB) Time Uncertainty (minutes) Semi-major axis (km) Semi-minor axis (km) range-LOV angle (deg) N-sigma BP Orbit Ref. Reference Modified
1941-Jun-13 15:40 00:02 Jupiter 1.82541471928158 1.82541403601876 1.82541540255551 5.04361810994065 4.95076263573449 2430159.152487350 2.07203174039134 318.185515409663 20.9773949344235 -85.0810290373748 2828431.94945369 T 24 CATAB v2.0f-lin.ifort 2020-Nov-13 03:05:17 2020-Nov-13 03:05
1952-Jan-14 06:58 00:02 Jupiter 1.9852216240565 1.98522049296616 1.98522275516513 5.6648382913275 5.589012878023 2434025.790059692 1.76789742288235 412.483415480395 36.3092315943532 -84.0921293519059 2755663.40028909 T 24 CATAB v2.0f-lin.ifort 2020-Nov-13 03:05:17 2020-Nov-13 03:05
2035-Dec-27 11:11 < 00:01 Jupiter 1.83121279029585 1.83121223472803 1.83121334586522 5.33631628800479 5.24892150285884 2464688.965753830 0.688588655454378 213.540890647253 23.0474853233569 -86.5573739899118 2960395.7486747 T 24 CATAB v2.0f-lin.ifort 2020-Nov-13 03:05:17 2020-Nov-13 03:05
2119-Dec-23 07:37 00:03 Jupiter 1.94851794061911 1.9485165428684 1.94851933839165 4.29831404785064 4.19596256420877 2495364.817565266 3.38228507211345 357.528632312196 18.6902885948828 -77.6801053646041 2208520.85861524 T 24 CATAB v2.0f-lin.ifort 2020-Nov-13 03:05:17 2020-Nov-13 03:05
2130-Jul-13 11:35 00:03 Jupiter 1.86623030574587 1.86622920576447 1.8662314057279 5.58005532654082 5.49811614340721 2499219.982557943 3.33796925752822 278.548375886115 51.4675774905195 -87.4855775678824 2071218.46711961 T 24 CATAB v2.0f-lin.ifort 2020-Nov-13 03:05:17 2020-Nov-13 03:05

Alternate Designations
 1996 VD1 = 1988 FC1 
Ephemeris | Orbit Diagram | Orbital Elements | Mission Design | Physical Parameters | Discovery Circumstances | Close-Approach Data ]
ABOUT SSD CREDITS/AWARDS PRIVACY/COPYRIGHT GLOSSARY LINKS
FirstGov 2020-Nov-29 17:37 UT
(server date/time)  
NASA Home Page
Site Manager:   Ryan S. Park
Webmaster  Alan B. Chamberlin